sat.trackr.live / text

‹ back to catalog

STARLINK-31554

NORAD 59195 · 2024-045T

PAYLOAD ACTIVE UNKNOWN

§ Identity

Operator
Country
US
Launch date
2024-03-10
Launch site
AFETR
Launch vehicle
Mass (kg)
RCS (m²)

Purposes: comms

External: N2YO · Heavens-Above · Gunter

§ Orbital elements

Epoch: 2026-09-19T21:59:32.816256Z

Period
94.27 min
Inclination
43.0015°
Eccentricity
0.0001385
Mean motion
15.27575295 rev/d
Perigee alt
482.1 km
Apogee alt
484.0 km
Semi-major
6,861.2 km
B*
1.2243e-5
RAAN
75.8403°
Arg perigee
273.3298°
Mean anomaly
86.7395°
Rev number
14,286

§ Raw data

STARLINK-315541 59195U 24045T   26262.91635204  .00000075  00000+0  12243-4 0  99992 59195  43.0015  75.8403 0001385 273.3298  86.7395 15.27575295142869

JSON: /api/v1/satellites/59195 · /tle

For live sub-satellite position, see the globe view (requires WebGL).

§ Visibility from observer

Set your observer location to see the next 7 days of passes ≥ 10°. The values pass through the URL so the page stays shareable.

No JS? Fill the form by hand. The geolocation button needs JavaScript.